QPF
0.00 0.00 0.00 0.00 0.00 0.00 0.00 0.00 0.00 0.00 0.00 0.00 0.00 0.00 0.00 0.00 0.00 0.00 0.00 0.00 0.00 0.00 0.00 0.00 0.00 0.00 0.00 0.00 0.00 0.00 0.00 0.00 0.00 0.00 0.00 0.00 0.00 0.00 0.00 0.00 0.00 0.00 0.00 0.00
0.00 0.00 0.00 0.00 0.00 0.00 0.00 0.00 0.00 0.00 0.00 0.00 0.00 0.00 0.00 0.00 0.00 0.00 0.00 0.00 0.00 0.00 0.00 0.00 0.00 0.00 0.00 0.00 0.00 0.00 0.00 0.00 0.00 0.00 0.00 0.00 0.00 0.00 0.00 0.00 0.00 0.00 0.00 0.00
0.00 0.00 0.00 0.00 0.00 0.00 0.00 0.00 0.00 0.00 0.00 0.00 0.00 0.00 0.00 0.00 0.00 0.00 0.00 0.00 0.00 0.00 0.00 0.00 0.00 0.00 0.00 0.00 0.00 0.00 0.00 0.00 0.00 0.00 0.00 0.00 0.00 0.00 0.00 0.00 0.00 0.00 0.00 0.00
0.00 0.00 0.00 0.00 0.00 0.00 0.00 0.00 0.00 0.00 0.00 0.00 0.00 0.00 0.00 0.00 0.00 0.00 0.00 0.00 0.00 0.00 0.00 0.00 0.00 0.00 0.00 0.00 0.00 0.00 0.00 0.00 0.00 0.00 0.00 0.00 0.00 0.00 0.00 0.00 0.01 0.01 0.01 0.01
0.00 0.00 0.00 0.00 0.00 0.00 0.00 0.00 0.00 0.00 0.00 0.00 0.00 0.00 0.00 0.00 0.00 0.00 0.00 0.00 0.00 0.00 0.00 0.00 0.00 0.00 0.00 0.00 0.00 0.00 0.00 0.00 0.00 0.00 0.00 0.00 0.00 0.00 0.00 0.00 0.05 0.04 0.01 0.01
0.00 0.00 0.00 0.00 0.00 0.00 0.00 0.00 0.00 0.00 0.00 0.00 0.00 0.00 0.00 0.00 0.00 0.00 0.00 0.00 0.00 0.00 0.00 0.00 0.00 0.00 0.00 0.00 0.00 0.00 0.00 0.00 0.00 0.00 0.00 0.00 0.00 0.00 0.01 0.02 0.01 0.01 0.00 0.00
0.00 0.00 0.00 0.00 0.00 0.00 0.00 0.00 0.00 0.00 0.00 0.00 0.00 0.00 0.00 0.00 0.00 0.00 0.00 0.00 0.00 0.00 0.00 0.00 0.00 0.00 0.00 0.00 0.00 0.00 0.00 0.00 0.00 0.00 0.00 0.00 0.00 0.00 0.01 0.02 0.00 0.00 0.00 0.00
0.00 0.00 0.00 0.00 0.00 0.00 0.00 0.00 0.00 0.00 0.00 0.00 0.00 0.00 0.00 0.00 0.00 0.00 0.00 0.00 0.00 0.00 0.00 0.00 0.00 0.00 0.00 0.00 0.00 0.00 0.00 0.00 0.00 0.00 0.00 0.00 0.00 0.00 0.00 0.00 0.00 0.00 0.00 0.00
0.00 0.00 0.00 0.00 0.00 0.00 0.00 0.00 0.00 0.00 0.00 0.00 0.00 0.00 0.00 0.00 0.00 0.00 0.00 0.00 0.00 0.00 0.00 0.00 0.00 0.00 0.00 0.00 0.00 0.00 0.00 0.00 0.00 0.00 0.00 0.00 0.00 0.00 0.00 0.00 0.00 0.00 0.00 0.00
0.00 0.00 0.00 0.00 0.00 0.00 0.00 0.00 0.00 0.00 0.00 0.00 0.00 0.00 0.00 0.00 0.00 0.00 0.00 0.00 0.00 0.00 0.00 0.00 0.00 0.00 0.00 0.00 0.00 0.00 0.00 0.00 0.00 0.00 0.00 0.00 0.00 0.00 0.00 0.00 0.00 0.00 0.00 0.00
0.00 0.00 0.00 0.00 0.00 0.00 0.00 0.00 0.00 0.00 0.00 0.00 0.00 0.00 0.00 0.00 0.00 0.00 0.00 0.00 0.00 0.00 0.00 0.00 0.00 0.00 0.00 0.00 0.00 0.00 0.00 0.00 0.00 0.00 0.00 0.00 0.00 0.00 0.00 0.00 0.00 0.00 0.00 0.00
0.00 0.00 0.01 0.00 0.00 0.00 0.00 0.00 0.00 0.00 0.00 0.00 0.00 0.00 0.00 0.00 0.00 0.00 0.00 0.00 0.00 0.00 0.00 0.00 0.00 0.00 0.00 0.00 0.00 0.00 0.00 0.00 0.00 0.00 0.00 0.00 0.00 0.00 0.00 0.00 0.00 0.00 0.00 0.00
0.00 0.00 0.04 0.01 0.00 0.00 0.00 0.00 0.00 0.00 0.00 0.00 0.01 0.01 0.00 0.00 0.00 0.00 0.00 0.00 0.00 0.00 0.00 0.00 0.00 0.00 0.00 0.00 0.00 0.00 0.00 0.00 0.00 0.00 0.00 0.00 0.00 0.00 0.00 0.00 0.00 0.00 0.00 0.00
0.00 0.00 0.01 0.02 0.00 0.00 0.00 0.00 0.00 0.00 0.01 0.00 0.00 0.00 0.00 0.00 0.00 0.00 0.00 0.00 0.00 0.00 0.00 0.00 0.00 0.00 0.00 0.00 0.00 0.00 0.00 0.00 0.00 0.00 0.00 0.00 0.00 0.00 0.00 0.00 0.00 0.00 0.00 0.00
0.00 0.02 0.00 0.00 0.00 0.00 0.00 0.00 0.00 0.00 0.00 0.00 0.00 0.00 0.00 0.00 0.00 0.00 0.00 0.00 0.00 0.00 0.00 0.00 0.00 0.00 0.00 0.00 0.00 0.00 0.00 0.00 0.00 0.00 0.00 0.00 0.00 0.00 0.00 0.00 0.00 0.00 0.00 0.00
0.00 0.03 0.00 0.00 0.00 0.00 0.00 0.00 0.00 0.00 0.00 0.00 0.00 0.00 0.00 0.00 0.00 0.00 0.00 0.00 0.00 0.00 0.00 0.00 0.00 0.00 0.00 0.00 0.00 0.00 0.00 0.00 0.00 0.00 0.00 0.00 0.00 0.00 0.00 0.00 0.00 0.00 0.00 0.00
0.00 0.00 0.00 0.00 0.00 0.00 0.00 0.00 0.00 0.00 0.00 0.00 0.00 0.00 0.00 0.00 0.00 0.00 0.00 0.00 0.00 0.00 0.00 0.00 0.00 0.00 0.00 0.00 0.00 0.00 0.00 0.00 0.00 0.00 0.00 0.00 0.00 0.00 0.00 0.00 0.00 0.00 0.00 0.00
0.00 0.00 0.00 0.00 0.00 0.00 0.00 0.00 0.00 0.00 0.00 0.00 0.00 0.00 0.00 0.00 0.00 0.00 0.00 0.00 0.00 0.00 0.00 0.00 0.00 0.00 0.00 0.00 0.00 0.00 0.00 0.00 0.00 0.00 0.00 0.00 0.00 0.00 0.00 0.00 0.00 0.00 0.00 0.00
0.00 0.00 0.00 0.00 0.00 0.00 0.00 0.00 0.00 0.00 0.00 0.00 0.00 0.00 0.00 0.00 0.00 0.00 0.00 0.00 0.00 0.00 0.00 0.00 0.00 0.00 0.00 0.00 0.00 0.00 0.00 0.00 0.00 0.00 0.00 0.00 0.00 0.00 0.00 0.00 0.00 0.00 0.00 0.00
0.00 0.00 0.00 0.00 0.00 0.00 0.00 0.00 0.00 0.00 0.00 0.00 0.00 0.00 0.00 0.00 0.00 0.00 0.00 0.00 0.00 0.00 0.00 0.00 0.00 0.00 0.00 0.00 0.00 0.00 0.00 0.00 0.00 0.00 0.00 0.00 0.00 0.00 0.00 0.00 0.00 0.00 0.00 0.00
0.00 0.00 0.00 0.00 0.00 0.00 0.00 0.00 0.00 0.00 0.00 0.00 0.00 0.00 0.00 0.00 0.00 0.00 0.00 0.00 0.00 0.00 0.00 0.00 0.00 0.00 0.00 0.00 0.00 0.00 0.00 0.00 0.00 0.00 0.00 0.00 0.00 0.00 0.00 0.00 0.00 0.00 0.00 0.00
0.00 0.00 0.00 0.00 0.00 0.00 0.00 0.00 0.00 0.00 0.00 0.00 0.00 0.00 0.00 0.00 0.00 0.00 0.00 0.00 0.00 0.00 0.00 0.00 0.00 0.00 0.00 0.00 0.00 0.00 0.00 0.00 0.00 0.00 0.00 0.00 0.00 0.00 0.00 0.00 0.00 0.00 0.00 0.00
0.00 0.00 0.00 0.00 0.00 0.00 0.00 0.00 0.00 0.00 0.00 0.00 0.00 0.00 0.00 0.00 0.00 0.00 0.00 0.00 0.00 0.00 0.00 0.00 0.00 0.00 0.00 0.00 0.00 0.00 0.00 0.00 0.00 0.00 0.00 0.00 0.00 0.00 0.00 0.00 0.00 0.00 0.00 0.00
0.00 0.00 0.00 0.00 0.00 0.00 0.00 0.00 0.00 0.00 0.00 0.00 0.00 0.00 0.00 0.00 0.00 0.00 0.00 0.00 0.00 0.00 0.00 0.00 0.00 0.00 0.00 0.00 0.00 0.00 0.00 0.00 0.00 0.00 0.00 0.00 0.00 0.00 0.00 0.00 0.00 0.00 0.00 0.00
0.00 0.00 0.00 0.00 0.00 0.00 0.00 0.00 0.00 0.00 0.00 0.00 0.00 0.00 0.00 0.00 0.00 0.00 0.00 0.00 0.00 0.00 0.00 0.00 0.00 0.00 0.00 0.00 0.00 0.00 0.00 0.00 0.00 0.00 0.00 0.00 0.00 0.00 0.00 0.00 0.00 0.00 0.00 0.00
0.00 0.00 0.00 0.00 0.00 0.00 0.00 0.00 0.00 0.00 0.00 0.00 0.00 0.00 0.00 0.00 0.00 0.00 0.00 0.00 0.00 0.00 0.00 0.00 0.00 0.00 0.00 0.00 0.00 0.00 0.00 0.00 0.00 0.00 0.00 0.00 0.00 0.00 0.00 0.00 0.00 0.00 0.00 0.00
MSLP
1004.78 1004.13 1002.48 1001.94 1002.30 1002.05 1001.67 1001.85 1002.46 1003.06 1004.38 1006.80 1007.40 1007.22 1006.08 1006.20 1005.70 1004.44 1003.39 1003.04 1002.80 1002.61 1002.94 1003.54 1003.91 1004.15 1004.33 1004.68 1005.00 1005.38 1005.80 1006.01 1006.56 1006.69 1006.84 1007.15 1007.10 1007.33 1007.46 1007.63 1007.79 1008.42 1009.24 1009.45
1004.27 1003.05 1002.41 1002.46 1002.19 1002.06 1001.30 1001.21 1002.13 1003.02 1004.23 1006.02 1006.79 1006.75 1006.20 1005.72 1005.43 1003.85 1003.90 1002.87 1003.02 1003.53 1003.85 1004.32 1004.50 1004.49 1004.72 1004.94 1005.21 1005.52 1005.78 1006.04 1006.26 1006.37 1006.51 1006.36 1006.57 1006.63 1006.84 1007.06 1007.68 1008.26 1008.70 1008.87
1002.04 1002.06 1002.18 1002.04 1001.90 1001.47 1001.21 1001.17 1001.54 1002.60 1003.72 1004.52 1005.19 1006.09 1005.54 1004.62 1003.99 1003.07 1003.14 1003.07 1003.63 1004.32 1004.27 1004.54 1004.66 1005.03 1004.94 1005.14 1005.43 1005.32 1005.75 1006.03 1006.09 1006.21 1006.26 1006.63 1006.81 1006.71 1006.26 1006.66 1007.29 1007.97 1008.23 1008.39
1001.39 1000.84 1001.47 1001.33 1001.13 1001.35 1001.00 1001.68 1001.64 1002.17 1002.66 1002.79 1003.84 1003.78 1003.46 1003.97 1003.59 1003.81 1003.33 1003.81 1003.96 1004.37 1004.63 1004.95 1004.92 1005.29 1005.40 1005.41 1005.42 1005.76 1005.93 1006.00 1006.14 1006.18 1006.23 1006.23 1006.24 1006.11 1005.82 1006.21 1006.50 1007.31 1008.21 1008.36
1000.56 1000.18 1000.52 1000.43 1000.80 1001.13 1000.97 1001.09 1001.64 1001.95 1002.12 1002.20 1002.62 1002.97 1001.63 1002.21 1003.08 1003.06 1003.68 1004.02 1004.68 1004.52 1004.86 1005.23 1005.47 1005.76 1005.74 1005.65 1005.80 1006.13 1006.18 1006.17 1006.29 1006.15 1006.63 1006.34 1006.75 1006.21 1005.84 1005.86 1006.61 1007.63 1008.18 1008.48
999.52 999.82 1000.26 1000.41 1000.62 1000.88 1000.82 1001.05 1001.74 1002.10 1001.70 1001.29 1001.34 1001.52 1000.93 1000.91 1001.42 1002.03 1003.69 1004.98 1005.35 1004.87 1005.39 1005.64 1005.89 1006.13 1006.34 1006.17 1006.48 1006.76 1006.90 1006.92 1006.80 1006.91 1006.91 1006.94 1006.80 1006.62 1006.12 1006.33 1007.19 1007.95 1008.09 1008.71
999.48 999.69 1000.07 1000.04 1000.00 1000.52 1000.96 1001.16 1000.74 1000.93 1000.63 999.84 999.81 1000.20 999.78 999.75 1001.20 1002.21 1003.72 1004.62 1005.16 1005.35 1005.81 1005.93 1006.05 1006.42 1006.98 1007.04 1007.00 1007.24 1007.43 1007.34 1007.31 1007.23 1007.13 1007.14 1007.30 1007.32 1007.26 1007.75 1007.77 1007.78 1007.59 1008.18
998.94 999.52 999.68 1000.06 999.82 999.85 1000.30 1000.33 998.57 998.48 998.62 998.67 999.37 999.01 1000.04 1001.34 1002.17 1003.05 1003.97 1004.76 1005.29 1005.39 1005.49 1005.86 1006.37 1006.67 1007.22 1007.59 1007.62 1007.57 1007.73 1007.90 1007.97 1008.05 1008.05 1008.17 1008.23 1007.51 1007.61 1008.30 1008.35 1007.85 1007.65 1007.92
998.55 998.36 999.69 1000.04 999.91 999.75 999.77 999.66 999.17 999.03 998.30 998.05 999.29 1000.47 1001.53 1002.09 1002.72 1003.50 1004.20 1004.93 1005.45 1005.97 1005.91 1005.94 1006.34 1006.77 1007.48 1007.95 1008.49 1008.41 1008.54 1008.65 1008.66 1008.79 1008.76 1008.96 1009.02 1009.04 1009.11 1009.06 1009.22 1008.71 1008.60 1008.50
998.26 998.92 999.57 1000.50 1000.30 999.87 999.62 999.50 999.58 999.95 999.24 998.82 998.74 999.25 999.48 1001.41 1002.45 1003.47 1004.43 1005.23 1005.78 1005.96 1005.84 1006.07 1006.50 1007.26 1007.84 1008.36 1008.73 1008.79 1008.72 1009.10 1009.19 1009.24 1009.37 1009.42 1009.50 1009.64 1009.96 1009.99 1009.90 1009.79 1009.66 1009.46
999.10 999.12 1000.25 1000.43 1000.64 999.95 1000.26 999.74 999.67 999.64 999.73 999.88 999.81 1000.19 1000.72 1001.41 1002.25 1003.44 1004.34 1005.24 1005.95 1006.00 1005.86 1006.21 1006.72 1007.35 1007.69 1007.98 1008.16 1009.09 1009.16 1009.02 1009.32 1009.61 1009.66 1009.78 1009.77 1009.84 1009.93 1009.98 1009.94 1009.79 1009.73 1009.55
999.57 999.89 1001.03 1000.39 1000.47 1000.58 1000.42 999.90 1000.16 1000.39 1000.98 1000.64 1000.45 1001.48 1001.91 1001.87 1002.11 1003.21 1004.06 1005.12 1005.76 1006.23 1006.24 1006.56 1007.02 1007.63 1007.98 1008.37 1008.51 1008.45 1009.09 1009.21 1009.42 1009.63 1009.63 1009.75 1010.07 1010.08 1010.04 1009.96 1009.88 1009.67 1009.46 1009.25
1000.17 1000.41 1001.51 1001.82 1002.09 1001.82 1001.19 1000.72 1000.68 1001.00 1002.06 1001.61 1001.68 1002.00 1002.82 1002.60 1002.56 1003.62 1004.18 1004.57 1005.13 1005.89 1006.55 1006.95 1007.38 1007.57 1008.15 1008.61 1008.69 1008.94 1009.16 1009.26 1009.62 1009.84 1009.89 1009.85 1009.85 1009.88 1009.84 1009.81 1009.68 1009.46 1009.24 1009.01
1001.43 1001.50 1001.46 1001.80 1002.06 1002.17 1001.78 1001.57 1001.59 1002.01 1002.35 1002.75 1002.10 1002.05 1002.78 1002.88 1003.43 1004.04 1004.49 1004.62 1004.86 1005.43 1006.48 1007.41 1007.62 1007.87 1008.41 1008.78 1009.00 1009.18 1009.36 1009.56 1009.76 1009.78 1009.77 1009.66 1009.70 1009.70 1009.57 1009.39 1009.24 1009.03 1008.85 1008.57
1002.37 1002.66 1002.73 1003.47 1003.12 1002.65 1002.65 1002.43 1002.44 1002.57 1002.50 1002.43 1001.77 1001.43 1001.39 1002.26 1003.43 1004.19 1004.75 1005.11 1005.60 1006.10 1006.62 1007.37 1008.03 1008.18 1008.51 1008.78 1009.11 1009.51 1009.56 1009.84 1009.85 1009.81 1009.72 1009.61 1009.51 1009.24 1008.98 1008.76 1008.57 1008.47 1008.37 1008.09
1003.06 1003.37 1003.85 1003.70 1003.47 1003.35 1002.82 1002.64 1002.55 1002.54 1002.71 1002.65 1002.61 1002.50 1002.62 1003.33 1003.98 1004.54 1004.78 1005.75 1006.07 1006.36 1006.84 1007.60 1008.04 1008.26 1008.62 1008.91 1009.24 1009.59 1009.96 1009.91 1009.84 1009.74 1009.54 1009.29 1009.00 1008.69 1008.39 1008.16 1008.00 1007.81 1007.61 1007.43
1002.82 1003.27 1003.31 1002.82 1003.07 1003.42 1002.93 1002.24 1002.29 1002.44 1002.59 1002.71 1002.67 1002.67 1002.93 1003.80 1004.19 1004.45 1004.89 1005.56 1006.21 1006.74 1007.35 1007.69 1007.83 1008.11 1008.48 1008.92 1009.27 1009.57 1009.74 1009.76 1009.72 1009.54 1009.24 1008.86 1008.52 1008.16 1007.85 1007.55 1007.39 1007.28 1007.14 1007.08
1002.68 1003.05 1003.30 1003.02 1003.95 1003.41 1002.91 1003.21 1003.06 1002.84 1002.53 1002.97 1003.61 1003.79 1004.09 1004.44 1004.67 1005.04 1005.37 1005.84 1006.41 1007.07 1007.72 1008.03 1008.20 1008.43 1008.68 1008.96 1009.43 1009.63 1009.70 1009.71 1009.63 1009.35 1008.93 1008.61 1008.26 1007.86 1007.67 1007.45 1007.39 1007.30 1007.21 1006.94
1002.99 1003.12 1003.73 1003.59 1003.70 1002.84 1003.16 1003.86 1003.61 1003.38 1003.56 1004.16 1004.40 1004.52 1004.64 1005.02 1005.45 1005.70 1006.66 1007.12 1007.70 1008.15 1008.56 1008.65 1008.64 1008.72 1008.92 1009.25 1009.39 1009.46 1009.57 1009.57 1009.40 1009.06 1008.75 1008.50 1008.26 1008.02 1007.91 1007.75 1007.67 1007.76 1007.87 1007.68
1003.90 1003.83 1004.85 1004.42 1004.07 1003.12 1003.90 1004.83 1005.03 1004.89 1004.62 1005.77 1005.98 1005.81 1006.28 1006.71 1006.52 1006.38 1007.92 1007.99 1008.41 1008.66 1008.62 1008.53 1008.58 1008.75 1009.01 1009.06 1009.21 1009.24 1009.20 1009.18 1009.01 1008.92 1008.79 1008.76 1008.56 1008.50 1008.54 1008.66 1008.59 1008.40 1008.19 1008.02
1004.24 1004.71 1005.31 1005.05 1005.05 1004.08 1004.75 1005.73 1006.11 1005.73 1007.33 1007.13 1007.23 1007.32 1007.33 1007.20 1007.27 1007.65 1008.14 1008.36 1008.78 1008.85 1008.60 1008.39 1008.38 1008.42 1008.49 1008.64 1008.92 1008.95 1008.96 1008.91 1009.05 1009.15 1009.13 1009.31 1009.43 1009.51 1009.31 1008.99 1008.87 1008.79 1008.28 1007.91
1004.15 1004.73 1005.19 1005.29 1005.94 1005.77 1005.99 1006.47 1006.27 1007.60 1007.74 1007.71 1007.91 1008.01 1007.94 1008.02 1008.02 1008.43 1008.72 1008.93 1008.93 1008.75 1008.33 1008.15 1008.06 1008.08 1008.28 1008.65 1008.83 1008.78 1008.91 1009.14 1009.39 1009.89 1010.09 1010.04 1009.90 1009.68 1009.80 1009.45 1008.72 1008.38 1007.93 1007.32
1004.11 1004.32 1005.10 1005.51 1005.67 1006.37 1006.60 1006.86 1007.65 1008.01 1008.17 1008.19 1008.35 1008.54 1009.12 1009.23 1009.11 1009.07 1008.71 1008.60 1008.25 1008.30 1008.25 1008.27 1008.28 1008.35 1008.63 1008.88 1009.09 1009.08 1009.27 1010.00 1010.49 1010.63 1010.50 1010.29 1010.30 1010.00 1009.55 1008.80 1008.16 1007.65 1007.21 1006.66
1004.42 1004.92 1004.34 1005.27 1005.95 1006.54 1007.13 1007.64 1007.95 1008.27 1008.49 1008.74 1009.33 1009.38 1009.19 1009.16 1009.10 1009.08 1008.99 1008.81 1008.67 1008.67 1008.67 1008.86 1008.95 1008.96 1009.08 1009.32 1009.59 1010.26 1010.78 1011.10 1011.16 1010.99 1010.80 1010.73 1010.15 1009.34 1008.84 1008.21 1007.67 1007.09 1006.44 1005.83
1004.36 1005.10 1004.88 1005.28 1005.89 1006.90 1007.64 1008.27 1008.74 1008.95 1009.17 1009.48 1009.52 1009.68 1009.85 1009.95 1009.81 1009.73 1009.59 1009.53 1009.53 1009.53 1009.53 1009.73 1010.01 1009.97 1010.10 1010.76 1011.16 1011.50 1011.53 1011.83 1011.67 1011.65 1011.03 1010.39 1009.78 1009.12 1008.26 1007.59 1006.95 1006.33 1005.54 1005.26
1005.02 1004.92 1005.20 1005.17 1006.58 1007.08 1008.52 1009.06 1009.50 1009.91 1010.22 1010.31 1010.52 1010.46 1010.43 1010.47 1010.39 1010.38 1010.35 1010.45 1010.52 1010.50 1010.78 1010.82 1011.43 1011.89 1012.11 1012.21 1012.12 1012.06 1012.24 1012.45 1012.14 1011.29 1010.72 1010.15 1009.46 1008.67 1007.91 1006.98 1005.72 1005.35 1004.59 1003.90
Thickness
5639 5636 5650 5674 5683 5696 5705 5701 5691 5702 5702 5681 5673 5681 5704 5710 5710 5724 5744 5751 5759 5769 5776 5778 5784 5788 5790 5788 5787 5787 5784 5785 5781 5777 5773 5772 5771 5773 5774 5773 5770 5763 5753 5751
5636 5639 5665 5675 5682 5685 5700 5696 5689 5696 5697 5684 5674 5674 5691 5701 5708 5728 5728 5742 5745 5748 5755 5761 5767 5772 5774 5776 5777 5776 5776 5775 5775 5771 5770 5771 5770 5771 5771 5769 5762 5755 5750 5748
5648 5661 5673 5672 5674 5680 5692 5691 5693 5686 5691 5695 5686 5669 5686 5706 5717 5728 5733 5738 5739 5734 5737 5745 5752 5756 5764 5764 5765 5768 5765 5764 5767 5766 5765 5761 5759 5759 5761 5758 5754 5750 5748 5745
5660 5680 5669 5671 5673 5681 5675 5691 5696 5690 5684 5674 5694 5665 5691 5695 5706 5711 5725 5727 5731 5734 5738 5740 5745 5746 5750 5754 5758 5755 5755 5756 5757 5758 5753 5751 5748 5745 5752 5751 5751 5748 5739 5734
5657 5669 5668 5669 5673 5683 5680 5699 5690 5689 5685 5687 5683 5672 5702 5709 5696 5709 5714 5720 5722 5730 5731 5731 5733 5735 5740 5745 5746 5745 5745 5746 5746 5748 5743 5743 5737 5743 5745 5746 5735 5730 5727 5724
5680 5691 5678 5676 5685 5687 5697 5688 5683 5684 5689 5671 5690 5686 5696 5704 5714 5716 5707 5705 5707 5719 5719 5720 5723 5725 5724 5731 5731 5731 5730 5730 5734 5733 5733 5729 5729 5731 5731 5729 5719 5713 5712 5709
5669 5669 5680 5687 5680 5687 5681 5671 5661 5659 5666 5676 5716 5698 5713 5730 5721 5712 5703 5704 5705 5708 5707 5709 5711 5711 5709 5712 5716 5716 5715 5715 5717 5719 5720 5719 5716 5716 5714 5706 5706 5704 5704 5700
5656 5645 5670 5679 5679 5676 5676 5679 5690 5669 5680 5696 5714 5700 5705 5713 5711 5709 5705 5702 5700 5702 5704 5701 5700 5700 5699 5699 5701 5704 5703 5701 5702 5702 5701 5701 5699 5703 5701 5695 5691 5696 5694 5691
5660 5669 5680 5679 5688 5692 5679 5673 5707 5685 5710 5703 5697 5694 5696 5697 5694 5697 5694 5692 5689 5688 5689 5691 5693 5694 5689 5688 5684 5685 5683 5684 5684 5683 5683 5681 5680 5679 5676 5677 5675 5677 5676 5675
5679 5652 5673 5669 5681 5688 5683 5701 5673 5679 5662 5673 5698 5696 5697 5685 5684 5685 5681 5676 5677 5680 5682 5682 5682 5678 5675 5673 5671 5672 5674 5669 5668 5667 5666 5664 5662 5660 5656 5655 5655 5654 5654 5654
5673 5670 5653 5665 5657 5666 5669 5674 5684 5693 5693 5667 5671 5676 5697 5686 5684 5678 5674 5671 5667 5669 5673 5674 5672 5671 5670 5669 5668 5658 5658 5659 5656 5653 5652 5650 5649 5647 5645 5642 5640 5640 5639 5639
5671 5662 5631 5654 5673 5676 5674 5678 5679 5659 5655 5677 5678 5660 5689 5690 5689 5681 5673 5666 5665 5664 5666 5666 5663 5660 5657 5655 5655 5656 5651 5647 5645 5642 5640 5636 5632 5631 5629 5628 5627 5627 5627 5627
5659 5651 5621 5626 5643 5656 5656 5669 5673 5673 5655 5649 5647 5655 5672 5679 5679 5672 5668 5667 5664 5661 5657 5655 5652 5650 5645 5641 5640 5637 5635 5633 5629 5625 5622 5621 5620 5617 5615 5613 5612 5612 5612 5611
5643 5638 5638 5628 5631 5640 5638 5648 5657 5651 5632 5636 5647 5656 5657 5660 5657 5658 5660 5662 5662 5657 5649 5641 5638 5637 5633 5629 5625 5623 5620 5618 5614 5613 5610 5607 5604 5602 5601 5600 5600 5599 5598 5598
5631 5617 5629 5616 5631 5636 5633 5635 5638 5634 5644 5636 5655 5661 5673 5665 5655 5653 5652 5650 5646 5640 5637 5632 5626 5624 5620 5617 5614 5609 5607 5602 5599 5596 5592 5590 5589 5589 5589 5588 5588 5587 5585 5585
5622 5606 5610 5610 5625 5628 5627 5636 5639 5641 5642 5645 5646 5644 5660 5656 5654 5645 5644 5636 5633 5632 5629 5623 5618 5614 5609 5604 5599 5594 5588 5586 5583 5580 5578 5578 5578 5577 5578 5578 5577 5577 5577 5576
5615 5610 5613 5616 5627 5621 5615 5634 5639 5641 5645 5643 5633 5646 5652 5642 5639 5640 5638 5633 5626 5622 5617 5612 5608 5604 5599 5593 5588 5582 5578 5574 5569 5567 5567 5569 5569 5569 5569 5569 5568 5567 5565 5563
5615 5615 5617 5615 5609 5595 5624 5635 5635 5634 5644 5642 5635 5635 5636 5634 5635 5635 5634 5626 5621 5614 5606 5600 5594 5589 5584 5579 5572 5567 5563 5559 5558 5558 5560 5560 5560 5560 5559 5558 5556 5554 5551 5551
5621 5617 5602 5602 5604 5624 5623 5620 5624 5625 5623 5631 5626 5629 5631 5628 5625 5620 5615 5611 5602 5593 5586 5581 5577 5572 5568 5562 5559 5555 5551 5548 5548 5549 5551 5551 5550 5548 5546 5545 5543 5539 5533 5533
5607 5613 5594 5601 5594 5603 5609 5612 5619 5619 5605 5615 5612 5612 5607 5605 5597 5603 5593 5593 5584 5577 5572 5567 5562 5558 5553 5550 5548 5546 5545 5543 5542 5542 5542 5539 5537 5534 5530 5526 5524 5522 5519 5516
5586 5588 5579 5588 5585 5605 5610 5604 5605 5592 5578 5596 5597 5596 5595 5594 5595 5593 5589 5579 5569 5563 5560 5557 5552 5548 5547 5546 5542 5540 5539 5537 5534 5532 5530 5524 5519 5515 5514 5514 5511 5506 5505 5503
5583 5577 5576 5585 5569 5566 5600 5593 5591 5582 5586 5590 5589 5589 5588 5587 5585 5577 5570 5562 5558 5554 5554 5551 5547 5545 5542 5538 5534 5534 5532 5528 5524 5516 5512 5509 5507 5505 5500 5498 5500 5499 5496 5496
5581 5589 5578 5582 5582 5589 5591 5588 5585 5584 5580 5581 5581 5580 5571 5566 5564 5562 5559 5555 5554 5548 5545 5543 5539 5536 5532 5527 5524 5524 5521 5512 5506 5502 5500 5499 5494 5493 5493 5495 5496 5494 5490 5487
5586 5589 5591 5584 5583 5582 5581 5580 5580 5578 5575 5574 5568 5566 5567 5561 5558 5552 5547 5544 5541 5537 5534 5531 5527 5524 5520 5517 5513 5506 5500 5496 5493 5493 5491 5486 5488 5493 5491 5491 5489 5487 5483 5480
5586 5581 5582 5580 5580 5575 5571 5570 5565 5565 5565 5561 5561 5557 5552 5546 5542 5537 5533 5529 5526 5523 5521 5517 5512 5511 5507 5499 5494 5489 5488 5483 5483 5479 5482 5485 5486 5487 5489 5487 5484 5480 5475 5468
5577 5577 5572 5572 5572 5566 5555 5556 5555 5549 5546 5546 5542 5540 5538 5533 5526 5522 5517 5513 5510 5509 5504 5502 5493 5486 5483 5481 5481 5481 5477 5473 5473 5479 5481 5481 5482 5483 5483 5482 5482 5473 5469 5464